User: anonymous   Login
Location: Argonnex
(45.9500°N, 6.1333°E)
Time: 20:12:19
(UTC+00:00)
Language:

FENGYUN 1C DEB - Orbit

View from above orbital plane
View from above orbital plane
View from above satellite
View from above satellite

Ground track
Ground track

The orbit data is extracted from the following two-line orbital elements,

1 29975U 99025KZ  24057.99714447  .00000563  00000-0  41016-3 0  9999
2 29975  99.4101  79.1454 0114219 355.5306  69.8362 13.97493755873008
Epoch (UTC): 26 February 2024 23:55:53
Eccentricity: 0.0114219
inclination: 99.4101°
perigee height: 819 km
apogee height: 985 km
right ascension of ascending node: 79.1454°
argument of perigee: 355.5306°
revolutions per day: 13.97493755
mean anomaly at epoch: 69.8362°
orbit number at epoch: 87300

The dashed part of the orbit path shows where the satellite is in the earth's shadow,  

DLR